"Pseudo-MPEC" for P10V2Fe

Created 2019 Dec 3 22:07:30 UT using Find_Orb

Click here for an explanation of pseudo-MPECs

 
 Astrometry: 
     P10V2Fe  C2019 11 30Oq`Vps9,M\.AstrometryPb#3R,]OfsvoT,wtZly`redacted;uJF51
     P10V2Fe  C2019 11 30QAMD'Z6*BmtyU#e(y56`fe@2dZ-i4^da\k[F8N2(s5mUi\lOIWI[F51
     P10V2Fe  C2019 11 30u*i'(ZNv4cBM8a9@4OgjrclickJ\!MmJbBT+aMgC-+K)s5KMf:GUF51
     P10V2Fe KC2019 11 30C4Eo8[p?(@\JugeT//9Z8go=gv^'C9$28s$MixU0ZY_GEaV.Joh6Z84
     P10V2Fe KC2019 11 308Y$4q_2ddx]O'T^k4here*\cE8qoa91xQDV@;,ZforY*]=`fx;KiZ84
     P10V2Fe KC2019 11 30Oise,WWgspxqv'v8B(MVf0MvKu!n%jgjv_SLu$$FMmI^@%$*R*#ZZ84
     P10V2Fe KC2019 11 30(K_L8)#Q+0W4[Lexplanationn6SJ)#.#\f-5qglQIjv0sS%cs_RZ84
     P10V2Fe KC2019 12 03.25238 01 36 12.22 -20 49 45.7    ~C36M       oNEOCP291
     P10V2Fe KC2019 12 03.25451 01 36 11.28 -20 49 33.2    ~C36M       oNEOCP291
     P10V2Fe KC2019 12 03.25666 01 36 10.33 -20 49 20.0    ~C36M       oNEOCP291
     P10V2Fe ^C2019 12 03.39034101 35 11.946-20 35 57.66   ~C39q 21.36GVNEOCP568
     P10V2Fe ^C2019 12 03.39128901 35 11.508-20 35 52.07   ~C39q 21.26GVNEOCP568
     P10V2Fe ^C2019 12 03.40158901 35 06.853-20 34 50.13   ~C3A7 21.23GVNEOCP568
     P10V2Fe ^C2019 12 03.40348701 35 05.959-20 34 38.29   ~C3A7 21.12GVNEOCP568

Station data:
(291) LPL/Spacewatch II  (N31.961669 W111.599905)  US/Arizona.  Observers J.
   V. Scotti, R. S. McMillan. 1.8-m f/2.7 reflector + CCD.
(568) Mauna Kea  (N19.826116 W155.472200)  US/Hawaii.
(F51) Pan-STARRS 1, Haleakala  (N20.707235 W156.255910)  US/Hawaii.
   Observers N. Primak, A. Schultz, S. Watters, J. Thiel, T. Goggia. Measurer
   PS1 Science Consortium. 1.8-m Ritchey-Chrétien + CCD.
(Z84) Calar Alto-Schmidt  (N37.224049 W2.548210)  Spain.

Orbital elements:  P10V2Fe
   Perihelion 2020 Jan 29.843916 +/- 0.236 TT = 20:15:14 (JD 2458878.343916)
Epoch 2019 Dec  3.0 TT = JDT 2458820.5   Earth MOID: 0.0323   Ma: 0.0059
M 323.34338640 +/- 0.54             (J2000 ecliptic)          AutoNEOCP
n   0.63371596 +/- 0.0069           Peri.   56.82440 +/- 0.19
a   1.34237219 +/- 0.00975          Node    73.87061 +/- 0.08
e   0.3222675 +/- 0.00501           Incl.   22.79758 +/- 0.26
P   1.56/568.07d           H 23.2   G  0.15   U  9.4  
q 0.90976921 +/- 0.000164    Q 1.77497517 +/- 0.0198
From 14 observations 2019 Nov. 30-Dec. 3; mean residual 0".29
Residuals in arcseconds: 
191130 F51  .10-  .03-    191130 Z84  .41+  .29+    191203 568  .11+  .11+    
191130 F51  .01+  .05-    191130 Z84  .29-  .90-    191203 568  .01+  .01-    
191130 F51  .10+  .11+    191203 291  .37-  .03-    191203 568  .27+  .20-    
191130 Z84  .45+  .32+    191203 291  .05-  .21-    191203 568  .21-  .17+    
191130 Z84  .58-  .25+    191203 291  .26+  .19+    

Ephemerides (geocentric):
Date (UTC) HH   RA              Dec         delta   r     elong  mag " sig PA
---- -- -- --  -------------   -----------  ------ ------ -----  --- ---- ---
2019 12 03 22  01 31 24.572   -19 42 08.90  .15234 1.0659 118.1 21.3 .737  36
2019 12 03 23  01 31 06.317   -19 37 51.05  .15219 1.0657 118.0 21.3 .748  36
2019 12 04 00  01 30 48.048   -19 33 32.47  .15204 1.0655 118.0 21.3 .760  36
2019 12 04 01  01 30 29.766   -19 29 13.17  .15188 1.0653 117.9 21.3 .772  36
2019 12 04 02  01 30 11.471   -19 24 53.15  .15173 1.0651 117.9 21.2 .784  36
2019 12 04 03  01 29 53.162   -19 20 32.41  .15158 1.0649 117.8 21.2 .796  36
2019 12 04 04  01 29 34.841   -19 16 10.94  .15143 1.0648 117.8 21.2 .809  36
2019 12 04 05  01 29 16.506   -19 11 48.76  .15127 1.0646 117.8 21.2 .821  36
2019 12 04 06  01 28 58.158   -19 07 25.85  .15112 1.0644 117.7 21.2 .834  35
2019 12 04 07  01 28 39.798   -19 03 02.22  .15097 1.0642 117.7 21.2 .847  35
2019 12 04 08  01 28 21.424   -18 58 37.87  .15082 1.0640 117.6 21.2 .860  35
2019 12 04 09  01 28 03.038   -18 54 12.80  .15067 1.0638 117.6 21.2 .874  35
2019 12 04 10  01 27 44.638   -18 49 47.01  .15053 1.0636 117.5 21.2 .887  35
2019 12 04 11  01 27 26.226   -18 45 20.50  .15038 1.0634 117.5 21.2 .901  35
2019 12 04 12  01 27 07.801   -18 40 53.27  .15023 1.0632 117.4 21.2 .915  34
2019 12 04 13  01 26 49.364   -18 36 25.32  .15008 1.0630 117.4 21.2 .929  34
2019 12 04 14  01 26 30.913   -18 31 56.64  .14994 1.0628 117.3 21.2 .943  34
2019 12 04 15  01 26 12.450   -18 27 27.25  .14979 1.0626 117.3 21.2 .958  34
2019 12 04 16  01 25 53.975   -18 22 57.14  .14964 1.0624 117.2 21.2 .972  33
2019 12 04 17  01 25 35.487   -18 18 26.31  .14950 1.0623 117.2 21.2 .987  33
2019 12 04 18  01 25 16.986   -18 13 54.77  .14935 1.0621 117.1 21.2 1.00  33
2019 12 04 19  01 24 58.473   -18 09 22.50  .14921 1.0619 117.1 21.2 1.02  33
2019 12 04 20  01 24 39.947   -18 04 49.52  .14906 1.0617 117.0 21.2 1.03  33
2019 12 04 21  01 24 21.410   -18 00 15.81  .14892 1.0615 117.0 21.2 1.05  32
2019 12 04 22  01 24 02.859   -17 55 41.40  .14878 1.0613 116.9 21.2 1.06  32
2019 12 04 23  01 23 44.297   -17 51 06.26  .14863 1.0611 116.9 21.2 1.08  32
2019 12 05 00  01 23 25.722   -17 46 30.41  .14849 1.0609 116.9 21.2 1.10  32
2019 12 05 01  01 23 07.135   -17 41 53.84  .14835 1.0607 116.8 21.2 1.11  31
2019 12 05 02  01 22 48.536   -17 37 16.56  .14821 1.0605 116.8 21.2 1.13  31
2019 12 05 03  01 22 29.925   -17 32 38.56  .14807 1.0603 116.7 21.2 1.15  31
2019 12 05 04  01 22 11.301   -17 27 59.85  .14793 1.0601 116.7 21.2 1.16  30
2019 12 05 05  01 21 52.666   -17 23 20.42  .14779 1.0600 116.6 21.2 1.18  30
2019 12 05 06  01 21 34.019   -17 18 40.29  .14765 1.0598 116.6 21.2 1.20  30
2019 12 05 07  01 21 15.359   -17 13 59.44  .14751 1.0596 116.5 21.2 1.22  30
2019 12 05 08  01 20 56.688   -17 09 17.87  .14737 1.0594 116.5 21.2 1.23  29
2019 12 05 09  01 20 38.005   -17 04 35.60  .14724 1.0592 116.4 21.2 1.25  29
2019 12 05 10  01 20 19.310   -16 59 52.61  .14710 1.0590 116.4 21.2 1.27  29
2019 12 05 11  01 20 00.604   -16 55 08.92  .14696 1.0588 116.3 21.2 1.29  28
2019 12 05 12  01 19 41.886   -16 50 24.51  .14683 1.0586 116.2 21.2 1.31  28
2019 12 05 13  01 19 23.156   -16 45 39.40  .14669 1.0584 116.2 21.2 1.33  28
2019 12 05 14  01 19 04.414   -16 40 53.58  .14656 1.0582 116.1 21.2 1.35  28
2019 12 05 15  01 18 45.661   -16 36 07.05  .14642 1.0580 116.1 21.2 1.37  27
2019 12 05 16  01 18 26.896   -16 31 19.82  .14629 1.0579 116.0 21.2 1.39  27
2019 12 05 17  01 18 08.120   -16 26 31.88  .14615 1.0577 116.0 21.2 1.41  27
2019 12 05 18  01 17 49.332   -16 21 43.24  .14602 1.0575 115.9 21.2 1.43  26
2019 12 05 19  01 17 30.533   -16 16 53.89  .14589 1.0573 115.9 21.2 1.45  26
2019 12 05 20  01 17 11.723   -16 12 03.84  .14576 1.0571 115.8 21.2 1.47  26
2019 12 05 21  01 16 52.901   -16 07 13.09  .14562 1.0569 115.8 21.2 1.49  25